TimeCDT,TemperatureF,Dew PointF,Humidity,Sea Level PressureIn,VisibilityMPH,Wind Direction,Wind SpeedMPH,Gust SpeedMPH,PrecipitationIn,Events,Conditions,WindDirDegrees,DateUTC
12:15 AM,53.6,53.6,100,29.94,0.8,NNW,4.6,-,N/A,,Overcast,340,2012-10-23 05:15:00
12:35 AM,53.6,53.6,100,29.94,0.5,NNW,5.8,-,N/A,Fog,Fog,340,2012-10-23 05:35:00
12:55 AM,53.6,53.6,100,29.92,0.5,NNW,3.5,-,N/A,Fog,Fog,330,2012-10-23 05:55:00
1:15 AM,53.6,53.6,100,29.91,1.0,North,5.8,-,N/A,,Overcast,360,2012-10-23 06:15:00
1:35 AM,53.6,53.6,100,29.90,1.2,NNE,5.8,-,N/A,,Overcast,30,2012-10-23 06:35:00
1:55 AM,53.6,53.6,100,29.91,2.0,Calm,Calm,-,N/A,,Overcast,0,2012-10-23 06:55:00
2:15 AM,53.6,53.6,100,29.91,2.0,Calm,Calm,-,N/A,,Overcast,0,2012-10-23 07:15:00
2:35 AM,53.6,53.6,100,29.92,2.5,ENE,5.8,-,N/A,,Overcast,60,2012-10-23 07:35:00
2:55 AM,53.6,53.6,100,29.92,2.5,Calm,Calm,-,N/A,,Overcast,0,2012-10-23 07:55:00
3:15 AM,53.6,53.6,100,29.92,2.0,Calm,Calm,-,N/A,,Overcast,0,2012-10-23 08:15:00
3:35 AM,53.6,53.6,100,29.93,1.0,Calm,Calm,-,N/A,,Overcast,0,2012-10-23 08:35:00
4:15 AM,53.6,53.6,100,29.92,0.2,Calm,Calm,-,N/A,Fog,Fog,0,2012-10-23 09:15:00
4:35 AM,53.6,53.6,100,29.92,0.2,NE,4.6,-,N/A,Fog,Fog,50,2012-10-23 09:35:00
4:55 AM,53.6,51.8,94,29.91,0.2,NE,8.1,-,N/A,Fog,Fog,50,2012-10-23 09:55:00
5:15 AM,53.6,51.8,94,29.91,0.2,ENE,6.9,-,N/A,Fog,Fog,60,2012-10-23 10:15:00
5:35 AM,53.6,51.8,94,29.92,0.5,East,4.6,-,N/A,Fog,Fog,80,2012-10-23 10:35:00
5:55 AM,53.6,51.8,94,29.93,0.5,NE,3.5,-,N/A,Fog,Fog,50,2012-10-23 10:55:00
6:15 AM,51.8,51.8,100,29.93,0.8,ENE,6.9,-,N/A,,Overcast,60,2012-10-23 11:15:00
6:35 AM,51.8,51.8,100,29.92,0.8,ENE,6.9,-,N/A,,Overcast,60,2012-10-23 11:35:00
6:55 AM,51.8,51.8,100,29.92,0.5,ENE,5.8,-,N/A,Fog,Fog,70,2012-10-23 11:55:00
7:15 AM,51.8,51.8,100,29.91,0.5,ENE,5.8,-,N/A,Fog,Fog,60,2012-10-23 12:15:00
7:35 AM,51.8,51.8,100,29.92,0.2,ENE,3.5,-,N/A,Fog,Fog,60,2012-10-23 12:35:00
7:55 AM,51.8,51.8,100,29.92,0.2,ENE,4.6,-,N/A,Fog,Fog,60,2012-10-23 12:55:00
8:15 AM,53.6,51.8,94,29.93,0.2,Calm,Calm,-,N/A,Fog,Fog,0,2012-10-23 13:15:00
8:35 AM,53.6,51.8,94,29.94,0.2,Calm,Calm,-,N/A,Fog,Fog,0,2012-10-23 13:35:00
9:15 AM,53.6,53.6,100,29.95,1.0,SE,3.5,-,N/A,,Overcast,130,2012-10-23 14:15:00
9:55 AM,55.4,55.4,100,29.95,1.2,SE,3.5,-,N/A,,Overcast,130,2012-10-23 14:55:00
10:15 AM,55.4,55.4,100,29.95,1.2,SE,3.5,-,N/A,,Overcast,130,2012-10-23 15:15:00
10:35 AM,55.4,55.4,100,29.94,0.5,ESE,3.5,-,N/A,Fog,Fog,110,2012-10-23 15:35:00
10:55 AM,57.2,55.4,94,29.93,0.5,ESE,5.8,-,N/A,Rain,Light Rain,120,2012-10-23 15:55:00
11:35 AM,57.2,57.2,100,29.92,0.5,ESE,3.5,-,N/A,,Light Drizzle,110,2012-10-23 16:35:00
11:55 AM,57.2,57.2,100,29.92,1.5,Calm,Calm,-,N/A,Rain,Rain,0,2012-10-23 16:55:00
12:15 PM,57.2,57.2,100,29.92,2.0,Calm,Calm,-,0.04,Rain,Rain,0,2012-10-23 17:15:00
12:35 PM,57.2,57.2,100,29.92,1.5,Calm,Calm,-,0.14,Rain,Heavy Rain,0,2012-10-23 17:35:00
12:55 PM,59.0,59.0,100,29.91,7.0,Calm,Calm,-,0.17,Rain,Light Rain,0,2012-10-23 17:55:00
1:15 PM,59.0,59.0,100,29.89,7.0,ESE,5.8,-,0.01,Rain,Light Rain,110,2012-10-23 18:15:00
1:35 PM,59.0,59.0,100,29.88,10.0,East,3.5,-,0.02,Rain,Light Rain,100,2012-10-23 18:35:00
1:55 PM,59.0,59.0,100,29.89,10.0,Calm,Calm,-,0.02,,Light Drizzle,0,2012-10-23 18:55:00
2:15 PM,59.0,59.0,100,29.89,5.0,East,4.6,-,0.02,Rain,Rain,100,2012-10-23 19:15:00
2:35 PM,59.0,59.0,100,29.89,4.0,ESE,6.9,-,0.09,Rain,Rain,110,2012-10-23 19:35:00
2:55 PM,59.0,59.0,100,29.88,7.0,ESE,4.6,-,0.13,Rain,Light Rain,120,2012-10-23 19:55:00
3:15 PM,59.0,57.2,94,29.88,10.0,East,6.9,-,N/A,Rain,Light Rain,100,2012-10-23 20:15:00
3:55 PM,57.2,55.4,94,29.87,4.0,East,4.6,-,0.03,Rain,Light Rain,90,2012-10-23 20:55:00
4:15 PM,57.2,57.2,100,29.87,7.0,SE,5.8,-,N/A,,Overcast,130,2012-10-23 21:15:00
4:35 PM,57.2,57.2,100,29.87,5.0,SE,4.6,-,N/A,,Overcast,140,2012-10-23 21:35:00
4:55 PM,57.2,57.2,100,29.87,1.2,SE,5.8,-,N/A,,Overcast,140,2012-10-23 21:55:00
5:15 PM,57.2,57.2,100,29.88,3.0,SSE,6.9,-,N/A,,Overcast,150,2012-10-23 22:15:00
5:35 PM,57.2,57.2,100,29.88,1.0,SSE,5.8,-,N/A,,Overcast,160,2012-10-23 22:35:00
6:15 PM,59.0,57.2,94,29.89,0.8,South,4.6,-,N/A,,Overcast,170,2012-10-23 23:15:00
6:35 PM,59.0,59.0,100,29.89,0.5,SSE,5.8,-,N/A,Fog,Fog,160,2012-10-23 23:35:00
6:55 PM,59.0,59.0,100,29.89,0.5,SSE,3.5,-,N/A,Fog,Fog,150,2012-10-23 23:55:00
7:15 PM,59.0,59.0,100,29.89,0.8,SSE,3.5,-,N/A,,Overcast,150,2012-10-24 00:15:00
7:35 PM,59.0,59.0,100,29.89,1.2,Calm,Calm,-,N/A,,Overcast,0,2012-10-24 00:35:00
7:55 PM,59.0,59.0,100,29.90,1.8,Calm,Calm,-,N/A,,Overcast,0,2012-10-24 00:55:00
8:15 PM,59.0,59.0,100,29.90,0.2,Calm,Calm,-,N/A,Fog,Fog,0,2012-10-24 01:15:00
8:35 PM,59.0,59.0,100,29.91,0.2,South,3.5,-,N/A,Fog,Fog,180,2012-10-24 01:35:00
8:55 PM,59.0,59.0,100,29.91,0.2,Calm,Calm,-,N/A,Fog,Fog,0,2012-10-24 01:55:00
9:15 PM,59.0,59.0,100,29.91,0.2,SE,3.5,-,N/A,Fog,Fog,130,2012-10-24 02:15:00
9:35 PM,59.0,57.2,94,29.91,0.2,South,4.6,-,N/A,Fog,Fog,170,2012-10-24 02:35:00
9:55 PM,59.0,57.2,94,29.91,0.2,South,3.5,-,N/A,Fog,Fog,190,2012-10-24 02:55:00
10:35 PM,59.0,59.0,100,29.90,0.2,SE,3.5,-,N/A,Fog,Fog,140,2012-10-24 03:35:00
10:55 PM,59.0,59.0,100,29.90,0.2,SE,3.5,-,N/A,Fog,Fog,140,2012-10-24 03:55:00
11:15 PM,59.0,59.0,100,29.91,0.2,Calm,Calm,-,N/A,Fog,Fog,0,2012-10-24 04:15:00
11:35 PM,59.0,59.0,100,29.90,0.2,Calm,Calm,-,N/A,Fog,Fog,0,2012-10-24 04:35:00
11:55 PM,59.0,59.0,100,29.91,0.5,Calm,Calm,-,N/A,Fog,Fog,0,2012-10-24 04:55:00